Location: Julian California
(33.0790°N, 116.6010°W)
Time: 14:28:01
(UTC-08:00)

Lacrosse 5 - Pass Details

Date: 12 July 2018
Orbit: 716 x 722 km, 57.0° (Epoch: 07 December)

Event Time Altitude Azimuth Distance (km) Brightness Sun altitude
Rises 21:11:15 0° 335° (NNW) 3,128 6.4 -13.9°
Reaches altitude 10° 21:14:24 10° 354° (N) 2,204 5.0 -14.4°
Maximum altitude 21:17:48 18° 37° (NE) 1,730 3.9 -15.0°
Enters shadow 21:21:06 10° 78° (ENE) 2,174 4.0 -15.5°
